Miscellaneous Local Product
Issued by NWS North Platte, NE

Home | Current Version | Previous Version | Graphics & Text | Print | Product List | Glossary On
Versions: 1 2 3 4 5 6 7 8 9 10 11 12 13 14 15 16 17 18 19 20 21 22 23 24 25 26 27 28 29 30 31 32 33 34 35 36 37 38 39 40 41 42 43 44 45 46 47 48 49 50
622
AXUS43 KLBF 221610
MISLBF


WESTERN AND NORTH CENTRAL NEBRASKA HOURLY WEATHER ROUNDUP
NATIONAL WEATHER SERVICE NORTH PLATTE NE
1100 AM CDT SUN OCT 22 2017

NOTE: "FAIR" INDICATES FEW OR NO CLOUDS BELOW 12,000 FEET WITH NO
SIGNIFICANT WEATHER AND/OR OBSTRUCTIONS TO VISIBILITY.

NOTE: STATIONS NOT REPORTING VARIABLES SUCH AS SKY/WEATHER OR
PRESSURE ARE PROVIDED BY RAWS AND APRS NETWORKS AND ARE NOT UNDER
NATIONAL WEATHER SERVICE QUALITY CONTROL.

...OBSERVATIONS IN AND NEAR THE EASTERN PANHANDLE OF NEBRASKA...

CITY           SKY/WX    TMP DP  RH WIND       PRES   REMARKS
PINE RIDGE     CLOUDY    48  24  39 SW10      30.02F
GORDON         FAIR      49  25  38 SW13G18   30.03F
CHADRON        SUNNY     55  20  25 SW13      30.02F
ALLIANCE       SUNNY     56  24  29 W22G28    30.07F
SIDNEY         SUNNY     55  21  26 SW16      30.15S
CRESCENT LAKE    N/A     53  24  32 SW12        N/A
$$

...OBSERVATIONS IN NORTHERN NEBRASKA AND FAR SOUTHERN SOUTH DAKOTA...

CITY           SKY/WX    TMP DP  RH WIND       PRES   REMARKS
WINNER         FAIR      50  29  44 SW15      30.00F
VALENTINE      SUNNY     52  30  43 SW15      30.03F
THEDFORD       SUNNY     55  28  35 SW13      30.10F
AINSWORTH      SUNNY     52  29  42 SW12      30.06F
O`NEILL        SUNNY     55  35  46 SW12G20   30.06F
ORD            SUNNY     52  40  63 E3        30.09F
BROKEN BOW     SUNNY     51  30  44 W10       30.12S
VALENTINE NWR    N/A     45  29  53 SW7         N/A
HALSEY           N/A     46  28  48 SW6         N/A
BUTTE            N/A     52  36  55 SW13G20     N/A
CHAMBERS         N/A     55  36  48 S9          N/A
EWING            N/A     56  40  55 SW9         N/A
$$

...OBSERVATIONS IN SOUTHWEST NEBRASKA AND FAR NORTHEAST COLORADO...

CITY           SKY/WX    TMP DP  RH WIND       PRES   REMARKS
WRAY           FAIR      55  19  24 SW17G24   30.19F
HOLYOKE        FAIR      54  23  30 SW13      30.18S
IMPERIAL       SUNNY     55  21  26 SW18G25   30.17F
OGALLALA       SUNNY     51  27  39 W5        30.15F
NORTH PLATTE   SUNNY     49  34  56 NW7       30.16S
MCCOOK         SUNNY     50  29  44 W10       30.19R
LEXINGTON      SUNNY     51  34  52 NW6       30.16S
STAPLETON        N/A     52  34  50 CALM        N/A
GOTHENBURG       N/A     44  26  49 NW5         N/A
CALLAWAY         N/A     45  35  67 W6          N/A
$$

...OBSERVATIONS IN CENTRAL LINCOLN COUNTY AREA...

CITY           SKY/WX    TMP DP  RH WIND       PRES   REMARKS
N.P. AIRPORT   SUNNY     49  34  56 NW7       30.16S
N.P. DOWNTOWN    N/A     48  35  60 CALM        N/A
N.P. SOUTHEAST   N/A     48  33  55 CALM        N/A
N.P. HILLCREST   N/A     47  31  53 W7          N/A
$$

...SOME OBSERVATIONS FROM AROUND THE REGION...

CITY           SKY/WX    TMP DP  RH WIND       PRES   REMARKS
DENVER         CLOUDY    56  21  25 SW12      30.19R
LIMON          CLOUDY    48  14  25 S12       30.24S
ASPEN          CLOUDY    35  22  58 CALM      30.48R
LARAMIE        SUNNY     48  23  37 SW20G30   30.20F
CASPER         SUNNY     50  25  37 SW26G33   30.10S
CHEYENNE       SUNNY     52  22  30 W30G39    30.17R
SCOTTSBLUFF    SUNNY     58  26  29 W18G32    30.09F
GRAND ISLAND   SUNNY     55  34  45 SW9       30.14S
OMAHA          MOSUNNY   54  40  59 SE3       30.12S
SIOUX FALLS    MOSUNNY   56  38  50 SW6       30.05S
PIERRE         SUNNY     46  32  58 SW5       29.94F
RAPID CITY     SUNNY     48  22  35 VRB6      29.95R
BISMARCK       SUNNY     50  27  40 SW7       29.84F
KANSAS CITY    PTSUNNY   55  47  74 W8        30.13R
HILL CITY      SUNNY     56  32  40 W12       30.20S
WICHITA        MOSUNNY   60  45  57 NW7       30.20R
DODGE CITY     SUNNY     57  24  28 W12       30.25S
OKLAHOMA CITY  MOSUNNY   59  45  59 NW13      30.22R
DALLAS         PTSUNNY   67  59  75 N16       30.14S
AMARILLO       SUNNY     56  29  35 NW6       30.33R
$$




USA.gov is the U.S. government's official web portal to all federal, state and local government web resources and services.